Terminal Aerodrome Forecast
Issued by NWS Portland, OR

Home | Current Version | Previous Version | Text Only | Print | Product List | Glossary On
Versions: 1 2 3 4 5 6 7 8 9 10 11 12 13 14 15 16 17 18 19 20 21 22 23 24 25 26
000
FTUS46 KPQR 192355
TAFHIO
TAF
KHIO 192355Z 2000/2024 VRB03KT P6SM SKC
     FM202000 05012KT P6SM SKC=

USA.gov is the U.S. government's official web portal to all federal, state and local government web resources and services.